| time (UTC) | temp F | wind direction | speed MPH | gust MPH | rain 1hr in | rain 24hr in | rain mn in | humidity % | barometer mb |
| 20260508144557 | 46 | 265 | 5.0 | 9.0 | 0.00 | 0.06 | 0.06 | 79 | 1012.5 |
| 20260508143045 | 45 | 281 | 5.0 | 8.0 | 0.00 | 0.06 | 0.06 | 80 | 1012.4 |
| 20260508141541 | 45 | 277 | 6.0 | 10.0 | 0.01 | 0.06 | 0.06 | 83 | 1012.5 |
| 20260508140046 | 44 | 308 | 6.0 | 13.0 | 0.01 | 0.06 | 0.06 | 85 | 1012.5 |
| 20260508134558 | 44 | 265 | 6.0 | 11.0 | 0.03 | 0.06 | 0.06 | 88 | 1012.5 |
| 20260508133051 | 43 | 204 | 2.0 | 6.0 | 0.03 | 0.06 | 0.06 | 90 | 1012.5 |
| 20260508131547 | 42 | 221 | 3.0 | 10.0 | 0.02 | 0.05 | 0.05 | 87 | 1012.3 |
| 20260508130043 | 43 | 360 | 5.0 | 9.0 | 0.02 | 0.05 | 0.05 | 90 | 1012.5 |
| 20260508124545 | 43 | 360 | 3.0 | 6.0 | 0.00 | 0.03 | 0.03 | 89 | 1012.4 |
| 20260508123050 | 43 | 258 | 3.0 | 6.0 | 0.00 | 0.03 | 0.03 | 90 | 1012.2 |
| 20260508121547 | 43 | 360 | 3.0 | 7.0 | 0.00 | 0.03 | 0.03 | 90 | 1012.1 |
| 20260508120046 | 42 | 236 | 3.0 | 6.0 | 0.00 | 0.03 | 0.03 | 91 | 1012.0 |
| 20260508114545 | 42 | 202 | 2.0 | 6.0 | 0.00 | 0.03 | 0.03 | 91 | 1011.6 |
| 20260508113045 | 41 | 202 | 1.0 | 4.0 | 0.00 | 0.03 | 0.03 | 91 | 1011.4 |
| 20260508111546 | 41 | 202 | 3.0 | 4.0 | 0.00 | 0.03 | 0.03 | 92 | 1011.5 |
| 20260508110044 | 40 | 202 | 2.0 | 5.0 | 0.00 | 0.03 | 0.03 | 92 | 1011.2 |
| 20260508104545 | 40 | 202 | 2.0 | 4.0 | 0.00 | 0.03 | 0.03 | 92 | 1011.2 |
| 20260508103045 | 40 | 360 | 3.0 | 6.0 | 0.00 | 0.03 | 0.03 | 92 | 1011.4 |
| 20260508101541 | 40 | 213 | 4.0 | 6.0 | 0.00 | 0.03 | 0.03 | 92 | 1011.5 |
| 20260508100056 | 40 | 213 | 4.0 | 8.0 | 0.00 | 0.03 | 0.03 | 92 | 1011.6 |
| 20260508094549 | 40 | 209 | 5.0 | 9.0 | 0.00 | 0.03 | 0.03 | 92 | 1011.6 |
| 20260508093045 | 39 | 207 | 5.0 | 7.0 | 0.00 | 0.03 | 0.03 | 92 | 1011.6 |
| 20260508091547 | 39 | 202 | 4.0 | 7.0 | 0.00 | 0.03 | 0.03 | 92 | 1011.7 |
| 20260508090103 | 39 | 229 | 4.0 | 6.0 | 0.00 | 0.03 | 0.03 | 92 | 1011.7 |
| 20260508084547 | 39 | 208 | 4.0 | 6.0 | 0.00 | 0.03 | 0.03 | 92 | 1011.4 |
| 20260508083044 | 39 | 210 | 4.0 | 6.0 | 0.00 | 0.03 | 0.03 | 92 | 1011.4 |
| 20260508081559 | 40 | 205 | 3.0 | 5.0 | 0.00 | 0.03 | 0.03 | 91 | 1011.3 |
| 20260508080056 | 40 | 207 | 3.0 | 5.0 | 0.00 | 0.03 | 0.03 | 91 | 1011.3 |
| 20260508074548 | 41 | 191 | 4.0 | 8.0 | 0.00 | 0.03 | 0.03 | 91 | 1011.3 |
| 20260508073103 | 41 | 230 | 3.0 | 6.0 | 0.00 | 0.03 | 0.03 | 91 | 1011.4 |
| 20260508071544 | 41 | 360 | 3.0 | 6.0 | 0.00 | 0.03 | 0.03 | 90 | 1011.4 |
| 20260508070048 | 42 | 203 | 4.0 | 8.0 | 0.00 | 0.03 | 0.03 | 90 | 1011.5 |
| 20260508064547 | 42 | 360 | 3.0 | 8.0 | 0.00 | 0.03 | 0.03 | 90 | 1011.5 |
| 20260508063050 | 42 | 360 | 4.0 | 6.0 | 0.01 | 0.03 | 0.03 | 89 | 1011.5 |
| 20260508061549 | 42 | 360 | 5.0 | 9.0 | 0.01 | 0.03 | 0.03 | 88 | 1011.7 |
| 20260508060100 | 42 | 232 | 5.0 | 8.0 | 0.01 | 0.03 | 0.03 | 88 | 1011.6 |
| 20260508054546 | 43 | 257 | 4.0 | 12.0 | 0.01 | 0.03 | 0.03 | 87 | 1011.6 |
| 20260508053046 | 43 | 261 | 7.0 | 11.0 | 0.01 | 0.02 | 0.02 | 88 | 1011.7 |
| 20260508051602 | 43 | 248 | 8.0 | 11.0 | 0.01 | 0.02 | 0.02 | 88 | 1011.8 |
| 20260508050052 | 43 | 232 | 4.0 | 8.0 | 0.02 | 0.02 | 0.02 | 87 | 1011.7 |
| 20260508044550 | 43 | 223 | 5.0 | 8.0 | 0.02 | 0.02 | 0.02 | 86 | 1011.6 |
| 20260508043044 | 43 | 240 | 4.0 | 8.0 | 0.01 | 0.01 | 0.01 | 84 | 1011.6 |
| 20260508041547 | 44 | 240 | 9.0 | 16.0 | 0.01 | 0.01 | 0.01 | 83 | 1011.6 |
| 20260508040053 | 45 | 273 | 9.0 | 13.0 | 0.00 | 0.00 | 0.00 | 84 | 1011.5 |
| 20260508034551 | 44 | 279 | 6.0 | 12.0 | 0.00 | 0.00 | 0.00 | 83 | 1011.3 |
| 20260508033056 | 44 | 327 | 14.0 | 20.0 | 0.00 | 0.00 | 0.00 | 84 | 1011.2 |
| 20260508031554 | 45 | 360 | 16.0 | 23.0 | 0.00 | 0.00 | 0.00 | 84 | 1011.1 |
| 20260508030050 | 45 | 288 | 16.0 | 22.0 | 0.00 | 0.00 | 0.00 | 85 | 1011.2 |
| 20260508024610 | 44 | 300 | 10.0 | 15.0 | 0.00 | 0.00 | 0.00 | 82 | 1011.1 |
| 20260508023041 | 45 | 360 | 12.0 | 18.0 | 0.00 | 0.00 | 0.00 | 78 | 1011.1 |
| 20260508021549 | 45 | 302 | 9.0 | 11.0 | 0.00 | 0.00 | 0.00 | 78 | 1011.1 |
| 20260508020051 | 44 | 234 | 2.0 | 4.0 | 0.00 | 0.00 | 0.00 | 72 | 1010.9 |
| 20260508014550 | 44 | 234 | 1.0 | 4.0 | 0.00 | 0.00 | 0.00 | 71 | 1010.8 |
| 20260508013045 | 44 | 228 | 2.0 | 4.0 | 0.00 | 0.00 | 0.00 | 72 | 1010.8 |
| 20260508011548 | 44 | 223 | 2.0 | 4.0 | 0.00 | 0.00 | 0.00 | 74 | 1010.7 |
| 20260508010053 | 44 | 223 | 2.0 | 4.0 | 0.00 | 0.00 | 0.00 | 71 | 1010.6 |
| 20260508004552 | 45 | 264 | 0.0 | 3.0 | 0.00 | 0.00 | 0.00 | 68 | 1010.4 |
| 20260508003044 | 45 | 360 | 2.0 | 4.0 | 0.00 | 0.00 | 0.00 | 67 | 1010.4 |
| 20260508001548 | 46 | 360 | 1.0 | 5.0 | 0.00 | 0.00 | 0.00 | 66 | 1010.2 |
| 20260508000053 | 46 | 360 | 3.0 | 6.0 | 0.00 | 0.00 | 0.00 | 67 | 1010.1 |
| 20260507234545 | 46 | 360 | 3.0 | 6.0 | 0.00 | 0.00 | 0.00 | 67 | 1010.1 |
| 20260507233046 | 47 | 360 | 3.0 | 5.0 | 0.00 | 0.00 | 0.00 | 65 | 1010.0 |
| 20260507231546 | 47 | 360 | 3.0 | 4.0 | 0.00 | 0.00 | 0.00 | 65 | 1010.0 |
| 20260507230104 | 47 | 360 | 3.0 | 7.0 | 0.00 | 0.00 | 0.00 | 66 | 1010.1 |
| 20260507224553 | 47 | 360 | 2.0 | 4.0 | 0.00 | 0.00 | 0.00 | 66 | 1010.0 |
| 20260507223046 | 47 | 275 | 3.0 | 7.0 | 0.00 | 0.00 | 0.00 | 63 | 1010.0 |
| 20260507221547 | 48 | 275 | 3.0 | 7.0 | 0.00 | 0.00 | 0.00 | 64 | 1010.1 |
| 20260507220053 | 48 | 360 | 2.0 | 5.0 | 0.00 | 0.00 | 0.00 | 60 | 1010.1 |
| 20260507214545 | 48 | 360 | 1.0 | 4.0 | 0.00 | 0.00 | 0.00 | 60 | 1010.2 |
| 20260507213046 | 47 | 360 | 1.0 | 4.0 | 0.00 | 0.00 | 0.00 | 60 | 1010.2 |
| 20260507211546 | 47 | 360 | 0.0 | 3.0 | 0.00 | 0.00 | 0.00 | 64 | 1010.1 |
| 20260507204541 | 47 | 0 | 0.0 | 1.0 | 0.00 | 0.00 | 0.00 | 65 | 1010.2 |
| 20260507203112 | 47 | 0 | 0.0 | 3.0 | 0.00 | 0.00 | 0.00 | 68 | 1010.3 |
| 20260507201542 | 47 | 0 | 0.0 | 0.0 | 0.00 | 0.00 | 0.00 | 66 | 1010.4 |
| 20260507200041 | 46 | 360 | 1.0 | 4.0 | 0.00 | 0.00 | 0.00 | 67 | 1010.5 |
| 20260507194558 | 46 | 360 | 1.0 | 3.0 | 0.00 | 0.00 | 0.00 | 65 | 1010.5 |
| 20260507193046 | 46 | 360 | 1.0 | 4.0 | 0.00 | 0.00 | 0.00 | 64 | 1010.8 |
| 20260507191548 | 47 | 0 | 0.0 | 0.0 | 0.00 | 0.00 | 0.00 | 63 | 1010.9 |
| 20260507190047 | 46 | 0 | 0.0 | 4.0 | 0.00 | 0.00 | 0.00 | 70 | 1011.2 |
| 20260507184549 | 45 | 26 | 3.0 | 7.0 | 0.00 | 0.00 | 0.00 | 69 | 1011.3 |
| 20260507183045 | 45 | 19 | 3.0 | 5.0 | 0.00 | 0.00 | 0.00 | 70 | 1011.5 |
| 20260507181547 | 44 | 19 | 3.0 | 5.0 | 0.00 | 0.00 | 0.00 | 73 | 1011.6 |
| 20260507180045 | 45 | 11 | 3.0 | 5.0 | 0.00 | 0.00 | 0.00 | 71 | 1011.6 |
| 20260507174546 | 45 | 5 | 1.0 | 4.0 | 0.00 | 0.00 | 0.00 | 72 | 1011.6 |
| 20260507173115 | 44 | 11 | 4.0 | 8.0 | 0.00 | 0.00 | 0.00 | 73 | 1011.7 |
| 20260507171544 | 44 | 360 | 6.0 | 9.0 | 0.00 | 0.00 | 0.00 | 76 | 1011.9 |
| 20260507170049 | 45 | 5 | 6.0 | 9.0 | 0.00 | 0.00 | 0.00 | 74 | 1012.0 |
| 20260507164542 | 45 | 5 | 4.0 | 8.0 | 0.00 | 0.00 | 0.00 | 74 | 1012.1 |
| 20260507163046 | 45 | 5 | 5.0 | 8.0 | 0.00 | 0.00 | 0.00 | 73 | 1012.2 |
| 20260507161550 | 45 | 355 | 5.0 | 6.0 | 0.00 | 0.00 | 0.00 | 73 | 1012.4 |
| 20260507160053 | 45 | 345 | 5.0 | 8.0 | 0.00 | 0.00 | 0.00 | 72 | 1012.5 |
| 20260507154546 | 45 | 342 | 5.0 | 9.0 | 0.00 | 0.01 | 0.00 | 72 | 1012.7 |
| 20260507153041 | 45 | 340 | 8.0 | 10.0 | 0.00 | 0.01 | 0.00 | 71 | 1012.8 |
| 20260507151547 | 46 | 309 | 5.0 | 8.0 | 0.00 | 0.01 | 0.00 | 68 | 1012.7 |
| 20260507150047 | 46 | 293 | 3.0 | 6.0 | 0.00 | 0.01 | 0.00 | 69 | 1012.7 |